Track YAOGAN 20A now! 10-day predictions YAOGAN 20A is classified as:
1 40109U 14047A 25173.54721193 -.00000049 00000-0 48099-4 0 9998 2 40109 63.3807 226.1051 0358696 12.7923 348.1913 13.45392181534054